D-SAT (42794 NORAD) Tracking and Keplerian Element Data

This shows tracking and keplerian element data for the satellite.

Feedback or suggestion? Click here.




ElementValue
Catalog42794
NameD-SAT
Epoch Orbit7606
Epoch Day318.11173944
Epoch Year2018
RAAN6.9534
Inclination97.5724
Eccentricity0.0127861
Argument of Perigee142.7073
Mean Anonmoly218.3109
Mean Motion14.90966267
Decay Rate2.63E-06
L11 42794U 17036AF 18318.11173944 .00000263 00000-0 28118-4 0 9999
L22 42794 97.5724 6.9534 0127861 142.7073 218.3109 14.90966267 76061

Live tracking and technical data element details for D-SAT (NORAD 42794). D-SAT can be tracked NOW for your location showing map with azimuth and elevation plus other details from your city location.

Track the satellite on the map from your city or location and see movement details for azimuth, elevation, latitude, longitude, range, height, and movement on the map or in text.







IsCatalogInMostPopularTable: catalog: 42794, numindb: 144
Update: records affected: 1



GetName: 42794 D-SAT

Hit Count: updated at: Fri, 16 Nov 2018 02:53:58 GMT